KBUF

Buffalo Niagara International Airport

Airport
ICAO code
KBUF
IATA Code
BUF
Summary
ICAO Region
NAM
ICAO Territory
Location

Cheektowaga, New York

Serving
Buffalo
Elevation
728 ft
Coordinates
42° 56' 25" N , 78° 43' 49" W
KCC
Airport WX
Lake Effect Snow
Metar
KBUF 151154Z 22010KT 10SM OVC012 24/20 A2990 RMK AO2 SLP119 70001 T02390200 10244 20239 53008

Description

Airport located in Cheektowaga, New York, USA serving Buffalo, New York as well as Southern Ontario, Canada.

Airport map

Aerial View

SKYbrary Partners:

Safety knowledge contributed by: